[[{"header":{"parameterUnit":"m.s-1","parameterCategory":1,"la1":30.2991,"la2":30.254,"lo1":-89.0895,"lo2":-89.0444,"dy":0.0017,"dx":0.0017,"nx":28,"ny":28,"refTime":"2024-10-15T21:00:00:Z","depth":0,"parameterNumber":2,"parameterNumberName":"U-component_of_WINDS"},"data":[0,0,0,0,0,0,0,0,0,0,0,0,0,0,0,0,0,0,0,0,0,0,0,0,0,0,0,0,0,0,0,0,0,0,0,0,0,0,0,0,0,0,0,0,0,0,0,0,0,0,0,0,0,0,0,0,0,0,-5.5393,-5.5394,0,-5.5437,-5.5438,-5.5438,-5.5208,-5.5201,-5.5194,-5.5188,-5.5234,-5.5241,-5.5248,0,0,0,0,0,0,0,0,0,0,0,0,0,-5.5108,-5.5115,-5.5393,-5.5394,-5.5394,-5.5437,-5.5438,-5.5438,-5.5209,-5.5201,-5.5193,-5.5185,-5.5231,-5.524,-5.5249,0,0,0,0,0,0,0,0,0,0,0,0,0,-5.52,-5.5117,-5.5393,-5.5285,-5.5275,-5.5437,-5.5438,-5.5439,-5.521,-5.52,-5.519,-5.5181,-5.5229,-5.5239,-5.525,-5.5518,0,0,-5.5284,-5.5289,0,0,0,0,0,0,0,0,-5.5195,-5.5211,-5.53,-5.5293,-5.5282,-5.5307,-5.5354,-5.5465,-5.5213,-5.5235,-5.5188,-5.5176,-5.5266,-5.5274,-5.5304,-5.5521,-5.5522,-5.5285,-5.5292,-5.5297,-5.53,0,0,0,0,0,0,0,-5.5189,-5.5208,-5.541,-5.5302,-5.5291,-5.5233,-5.5236,-5.5374,-5.5306,-5.5232,-5.5216,-5.5224,-5.5259,-5.5294,-5.5303,-5.5523,-5.5285,-5.5295,-5.5302,-5.5306,-5.596,-5.597,0,0,0,0,0,0,-5.5197,-5.5204,-5.5409,-5.5412,-5.5213,-5.5247,-5.5249,-5.5309,-5.5304,-5.5294,-5.5233,-5.5213,-5.528,-5.529,-5.5304,-5.5616,-5.5297,-5.5307,-5.5314,-5.5949,-5.5962,-5.5974,0,0,0,0,0,0,-5.5192,-5.5218,-5.5407,-5.5303,-5.5323,-5.5262,-5.5331,-5.5315,-5.5349,-5.5304,-5.5291,-5.528,-5.5272,-5.5288,-5.5466,-5.5615,-5.5312,-5.5322,-5.5937,-5.5953,-5.5968,-5.6244,0,0,0,0,0,0,-5.5185,-5.5217,-5.5319,-5.5308,-5.533,-5.5571,-5.5341,-5.5323,-5.5369,-5.5344,-5.5345,-5.5336,-5.5266,-5.5451,-5.5477,-5.5624,-5.5331,-5.5923,-5.5944,-5.5963,-5.6222,-5.6268,-5.6307,0,0,0,0,0,-5.5176,-5.5396,-5.5326,-5.5352,-5.5456,-5.5579,-5.5592,-5.5507,-5.5382,-5.5483,-5.5454,-5.5336,-5.5594,-5.5471,-5.5499,-5.5652,-5.5913,-5.5938,-5.5961,-5.6203,-5.6259,-5.6306,0,0,0,0,0,0,-5.5427,-5.5392,-5.5314,-5.5537,-5.5563,-5.554,-5.5666,-5.5569,-5.5631,-5.5605,-5.5496,-5.5499,-5.5695,-5.5691,-5.5554,-5.591,-5.5732,-5.5763,-5.5906,-5.5959,-5.6001,-5.5998,-5.534,0,0,0,0,0,-5.5509,-5.5612,-5.5576,-5.5776,-5.5793,-5.5728,-5.5779,-5.571,-5.5733,-5.5743,-5.5726,-5.5753,-5.5838,-5.5898,-5.5976,-5.6219,-5.6216,-5.6338,-5.6381,-5.6416,-5.6444,-5.6572,-5.6625,-5.6053,-5.6052,-5.6052,0,0,-5.5678,-5.5672,-5.5744,-5.5827,-5.5838,-5.5948,-5.5739,-5.5863,-5.5943,-5.5761,-5.5928,-5.5918,-5.5939,-5.6151,-5.6244,-5.6153,-5.6601,-5.6447,-5.6476,-5.6484,-5.6602,-5.6656,-5.6705,-5.6069,-5.6066,-5.6063,0,0,-5.6042,-5.6049,-5.6215,-5.6231,-5.6252,-5.6206,-5.6247,-5.6239,-5.6224,-5.639,-5.6255,-5.6348,-5.65,-5.652,-5.6551,-5.6922,-5.6815,-5.695,-5.7174,-5.7299,-5.7344,-5.7384,-5.7515,-5.7564,-5.6978,-5.6979,-5.6979,0,-5.6251,-5.641,-5.6313,-5.6447,-5.6487,-5.6326,-5.6494,-5.6514,-5.656,-5.659,-5.6488,-5.6675,-5.6678,-5.6892,-5.6982,-5.7013,-5.7054,-5.695,-5.7346,-5.7384,-5.742,-5.7544,-5.7594,-5.6995,-5.6993,-5.6991,-5.699,0,-5.6664,-5.6777,-5.6909,-5.6956,-5.701,-5.7161,-5.7087,-5.7153,-5.708,-5.7046,-5.7215,-5.7214,-5.7287,-5.7332,-5.7263,-5.7537,-5.748,-5.7364,-5.7183,-5.7492,-5.7607,-5.7654,-5.7018,-5.7012,-5.7007,-5.7003,0,0,-5.719,-5.718,-5.723,-5.7249,-5.7259,-5.7344,-5.7486,-5.7558,-5.7617,-5.7653,-5.7769,-5.79,-5.7792,-5.7827,-5.7758,-5.7868,-5.8161,-5.7737,-5.7736,-5.7816,-5.8461,-5.8549,-5.8605,-5.8089,-5.8098,-5.8105,-5.8459,0,-5.7546,-5.7789,-5.7705,-5.7952,-5.8054,-5.7902,-5.8026,-5.8045,-5.8017,-5.8098,-5.8066,-5.8161,-5.8011,-5.8031,-5.8133,-5.8104,-5.8289,-5.8077,-5.8196,-5.8202,-5.8196,-5.8665,-5.8758,-5.9093,-5.8503,-5.8511,-5.8516,0,-5.7994,-5.8048,-5.8305,-5.8296,-5.8335,-5.8449,-5.8506,-5.8587,-5.8605,-5.8576,-5.8615,-5.8521,-5.8659,-5.8478,-5.8666,-5.8524,-5.8567,-5.856,-5.8571,-5.8579,-5.8378,-5.8686,-5.9197,-5.9248,-5.8586,-5.8581,-5.8576,0,-5.8351,-5.8487,-5.8658,-5.8679,-5.8673,-5.8756,-5.8757,-5.8765,-5.8813,-5.8863,-5.8893,-5.8959,-5.8996,-5.9049,-5.8976,-5.8851,-5.9175,-5.8987,-5.9154,-5.9156,-5.9229,-5.9226,-5.9755,-5.9259,-5.9258,-5.9257,-5.9256,0,-5.8757,-5.8921,-5.8818,-5.8924,-5.9102,-5.9004,-5.9182,-5.9166,-5.9175,-5.9274,-5.9146,-5.9242,-5.9139,-5.9225,-5.9168,-5.9332,-5.935,-5.933,-5.9313,-5.9341,-5.9344,-5.9369,-5.9343,-5.927,-5.9267,-5.9264,-5.9262,0,-5.9187,-5.9125,-5.9301,-5.928,-5.9279,-5.9411,-5.9393,-5.9489,-5.945,-5.9577,-5.9601,-5.9541,-5.9635,-5.9567,-5.9661,-5.9622,-5.9838,-5.9789,-5.9832,-5.9819,-5.9989,-5.9974,-6.0552,-6.0623,-6.0082,-6.0087,-6.0092,0,-5.945,-5.9572,-5.9564,-5.9621,-5.9631,-5.9724,-5.9772,-5.968,-5.9734,-5.9763,-5.9856,-5.9939,-6.0001,-6.0159,-6.0123,-6.0194,-6.0144,-6.0342,-6.0154,-6.0179,-6.0147,-6.014,-6.0152,-6.0381,-6.0387,-6.0392,-6.0397,0,-5.9924,-5.9887,-5.9961,-6.0025,-6.0085,-6.013,-6.0165,-6.0219,-6.0125,-6.0194,-6.0288,-6.0336,-6.0431,-6.0515,-6.0572,-6.0572,-6.047,-6.0456,-6.0498,-6.0528,-6.0548,-6.0539,-5.9936,-6.0443,-6.0438,-6.0435,-6.0433,-6.0431,-6.0278,-6.0378,-6.0388,-6.0474,-6.0491,-6.0526,-6.0615,-6.0587,-6.0665,-6.0735,-6.0675,-6.0788,-6.0801,-6.0868,-6.0881,-6.0967,-6.0886,-6.0947,-6.0962,-6.0979,-6.1003,-6.0535,-6.0977,-6.0976,-6.0975,-6.0973,-6.0972,0,-6.0744,-6.0742,-6.0823,-6.0875,-6.0943,-6.084,-6.0873,-6.0936,-6.1037,-6.1058,-6.1121,-6.1229,-6.131,-6.128,-6.1351,-6.1426,-6.1381,-6.1448,-6.1441,-6.1443,-6.1072,-6.1028,-6.1483,-6.1483,-6.1483,-6.1483,-6.1483,-6.1483,-6.0995,-6.1159,-6.1124,-6.1294,-6.1291,-6.1401,-6.1429,-6.146,-6.1476,-6.1603,-6.1669,-6.1648,-6.1649,-6.1718,-6.1787,-6.1776,-6.1808,-6.1893,-6.1865,-6.1519,-6.1469,-6.1421,-6.1379,-6.19,-6.1901,-6.2228,-6.2231,-6.2233]},{"header":{"parameterUnit":"m.s-1","parameterCategory":1,"la1":30.2991,"la2":30.254,"lo1":-89.0895,"lo2":-89.0444,"dy":0.0017,"dx":0.0017,"nx":28,"ny":28,"refTime":"2024-10-15T21:00:00:Z","depth":0,"parameterNumber":3,"parameterNumberName":"V-component_of_WINDS"},"data":[0,0,0,0,0,0,0,0,0,0,0,0,0,0,0,0,0,0,0,0,0,0,0,0,0,0,0,0,0,0,0,0,0,0,0,0,0,0,0,0,0,0,0,0,0,0,0,0,0,0,0,0,0,0,0,0,0,0,-4.9255,-4.9256,0,-4.9308,-4.9309,-4.9309,-4.9244,-4.9241,-4.9239,-4.9236,-4.9288,-4.9291,-4.9295,0,0,0,0,0,0,0,0,0,0,0,0,0,-4.9092,-4.9095,-4.9255,-4.9256,-4.9256,-4.9308,-4.9309,-4.9309,-4.9244,-4.9241,-4.9238,-4.9235,-4.9287,-4.9291,-4.9295,0,0,0,0,0,0,0,0,0,0,0,0,0,-4.9156,-4.9096,-4.9255,-4.923,-4.9228,-4.9308,-4.9309,-4.931,-4.9245,-4.9241,-4.9237,-4.9234,-4.9285,-4.9291,-4.9296,-4.9402,0,0,-4.9313,-4.9315,0,0,0,0,0,0,0,0,-4.9152,-4.9162,-4.9233,-4.9232,-4.923,-4.9266,-4.927,-4.934,-4.9246,-4.9238,-4.9236,-4.9232,-4.9283,-4.9289,-4.9306,-4.9404,-4.9406,-4.9313,-4.9316,-4.9319,-4.932,0,0,0,0,0,0,0,-4.9148,-4.9159,-4.9276,-4.9234,-4.9232,-4.9214,-4.922,-4.9283,-4.928,-4.9239,-4.9234,-4.9241,-4.9282,-4.9301,-4.9307,-4.9407,-4.9313,-4.9318,-4.9321,-4.9323,-4.959,-4.9594,0,0,0,0,0,0,-4.9147,-4.9156,-4.9274,-4.9277,-4.9181,-4.922,-4.9226,-4.9258,-4.9279,-4.9279,-4.9244,-4.9238,-4.9294,-4.9301,-4.9309,-4.9431,-4.9319,-4.9324,-4.9327,-4.9586,-4.9591,-4.9595,0,0,0,0,0,0,-4.9144,-4.9158,-4.9272,-4.9215,-4.9229,-4.9227,-4.9263,-4.9261,-4.928,-4.9284,-4.9283,-4.9265,-4.9291,-4.9301,-4.9378,-4.9432,-4.9326,-4.9331,-4.9582,-4.9588,-4.9593,-4.9679,0,0,0,0,0,0,-4.9139,-4.9157,-4.9199,-4.9217,-4.9232,-4.9343,-4.9267,-4.9264,-4.929,-4.9282,-4.9303,-4.9303,-4.9289,-4.9371,-4.9384,-4.9438,-4.9335,-4.9577,-4.9585,-4.9591,-4.9671,-4.9687,-4.97,0,0,0,0,0,-4.9134,-4.9221,-4.9201,-4.9216,-4.9284,-4.9346,-4.9354,-4.9338,-4.9295,-4.9335,-4.9337,-4.9302,-4.9425,-4.9379,-4.9393,-4.945,-4.9574,-4.9582,-4.9591,-4.9665,-4.9684,-4.97,0,0,0,0,0,0,-4.9209,-4.9223,-4.9201,-4.9297,-4.9321,-4.9335,-4.9386,-4.9359,-4.9394,-4.9386,-4.9362,-4.9367,-4.9449,-4.9457,-4.9407,-4.9551,-4.9492,-4.9504,-4.9543,-4.9561,-4.9576,-4.9571,-4.934,0,0,0,0,0,-4.9237,-4.9287,-4.9296,-4.938,-4.9393,-4.9388,-4.9414,-4.9399,-4.9422,-4.9431,-4.9439,-4.9462,-4.9505,-4.9534,-4.9574,-4.9673,-4.9674,-4.9718,-4.9733,-4.9744,-4.9754,-4.9804,-4.9823,-4.9624,-4.9624,-4.9623,0,0,-4.9295,-4.9309,-4.9342,-4.9396,-4.9412,-4.9463,-4.9396,-4.9454,-4.949,-4.944,-4.9513,-4.9519,-4.9543,-4.963,-4.9669,-4.964,-4.981,-4.9756,-4.9765,-4.9768,-4.9815,-4.9834,-4.985,-4.963,-4.9629,-4.9628,0,0,-4.9426,-4.9443,-4.9513,-4.953,-4.9556,-4.9551,-4.9568,-4.9586,-4.9588,-4.9661,-4.9623,-4.9666,-4.9742,-4.9759,-4.9778,-4.9913,-4.9881,-4.9927,-5.0002,-5.0051,-5.0067,-5.008,-5.0126,-5.0143,-4.9937,-4.9938,-4.9938,0,-4.9494,-4.9571,-4.9552,-4.9611,-4.9635,-4.9592,-4.9661,-4.9679,-4.9716,-4.9732,-4.9699,-4.9791,-4.9804,-4.9894,-4.9926,-4.9944,-4.996,-4.9924,-5.0066,-5.008,-5.0092,-5.0135,-5.0153,-4.9943,-4.9942,-4.9942,-4.9941,0,-4.9652,-4.9705,-4.9759,-4.9796,-4.9825,-4.9889,-4.9879,-4.991,-4.9892,-4.9891,-4.9964,-4.9978,-5.0019,-5.0039,-5.0023,-5.0126,-5.0106,-5.007,-5.0009,-5.0117,-5.0157,-5.0173,-4.995,-4.9948,-4.9947,-4.9946,0,0,-4.9832,-4.9857,-4.9877,-4.9891,-4.9916,-4.9956,-5.0017,-5.0057,-5.0084,-5.0111,-5.0159,-5.0223,-5.0189,-5.0211,-5.0195,-5.0238,-5.0341,-5.0196,-5.0196,-5.022,-5.0452,-5.0478,-5.0498,-5.0321,-5.0324,-5.0326,-5.0449,0,-4.9961,-5.0068,-5.0052,-5.0154,-5.0201,-5.0159,-5.0212,-5.0231,-5.0231,-5.027,-5.0269,-5.0314,-5.0267,-5.0279,-5.032,-5.032,-5.0387,-5.0311,-5.0363,-5.0366,-5.0357,-5.0519,-5.0547,-5.0663,-5.0465,-5.0468,-5.047,0,-5.0127,-5.0159,-5.0265,-5.028,-5.0299,-5.0347,-5.0381,-5.0419,-5.0439,-5.0436,-5.0459,-5.0435,-5.0493,-5.0433,-5.0512,-5.046,-5.0481,-5.0484,-5.0488,-5.0491,-5.0423,-5.0524,-5.0699,-5.0716,-5.0495,-5.0493,-5.0491,0,-5.0244,-5.0314,-5.0386,-5.0401,-5.042,-5.0454,-5.0463,-5.048,-5.0504,-5.0534,-5.0549,-5.0585,-5.0604,-5.0632,-5.0617,-5.0575,-5.0698,-5.0637,-5.0695,-5.0695,-5.0721,-5.0719,-5.09,-5.0738,-5.0738,-5.0738,-5.0737,0,-5.0389,-5.0455,-5.0439,-5.0483,-5.0555,-5.0535,-5.0606,-5.061,-5.0625,-5.0668,-5.0635,-5.0675,-5.0655,-5.0693,-5.0682,-5.0747,-5.0757,-5.0754,-5.075,-5.0756,-5.0756,-5.0768,-5.0758,-5.0742,-5.0741,-5.074,-5.0739,0,-5.0532,-5.0524,-5.0599,-5.0611,-5.0615,-5.0667,-5.0676,-5.0716,-5.0713,-5.0767,-5.0779,-5.0773,-5.0816,-5.0805,-5.0852,-5.0845,-5.0926,-5.0913,-5.092,-5.0916,-5.0973,-5.0967,-5.1166,-5.119,-5.1015,-5.1016,-5.1018,0,-5.0624,-5.0673,-5.069,-5.0716,-5.0728,-5.0771,-5.0795,-5.0777,-5.0803,-5.0829,-5.0865,-5.0906,-5.0937,-5.1008,-5.1007,-5.1042,-5.1028,-5.1095,-5.1033,-5.1036,-5.1026,-5.1022,-5.1026,-5.1107,-5.1109,-5.1111,-5.1112,0,-5.0786,-5.0779,-5.0816,-5.0851,-5.0881,-5.0908,-5.0931,-5.0955,-5.0938,-5.0969,-5.1013,-5.1037,-5.1084,-5.1124,-5.1156,-5.1163,-5.1134,-5.1132,-5.1147,-5.1152,-5.1153,-5.1151,-5.0951,-5.1127,-5.1126,-5.1125,-5.1124,-5.1123,-5.0905,-5.0946,-5.0963,-5.1004,-5.102,-5.1042,-5.1079,-5.108,-5.1117,-5.1154,-5.1141,-5.119,-5.1207,-5.1246,-5.1258,-5.1296,-5.127,-5.1292,-5.1297,-5.1302,-5.1308,-5.1149,-5.1302,-5.1301,-5.1301,-5.13,-5.13,0,-5.1063,-5.1072,-5.1111,-5.1144,-5.1176,-5.1146,-5.117,-5.1198,-5.1242,-5.126,-5.1291,-5.134,-5.1378,-5.138,-5.1415,-5.1444,-5.1431,-5.1453,-5.145,-5.1452,-5.1331,-5.1313,-5.1463,-5.1463,-5.1463,-5.1463,-5.1463,-5.1463,-5.115,-5.1217,-5.1212,-5.1285,-5.1293,-5.1341,-5.1357,-5.1376,-5.139,-5.1446,-5.1478,-5.1479,-5.1489,-5.1524,-5.1557,-5.1556,-5.1569,-5.1596,-5.159,-5.1477,-5.1461,-5.1445,-5.1428,-5.16,-5.16,-5.1708,-5.1709,-5.171]}]]